TimeEST,TemperatureF,Dew PointF,Humidity,Sea Level PressureIn,VisibilityMPH,Wind Direction,Wind SpeedMPH,Gust SpeedMPH,PrecipitationIn,Events,Conditions,WindDirDegrees,DateUTC
12:51 AM,41.0,35.1,79,29.91,10.0,South,8.1,-,N/A,,Overcast,180,2014-02-05 05:51:00
1:51 AM,42.1,36.0,79,29.86,10.0,South,11.5,-,0.00,Rain,Light Rain,170,2014-02-05 06:51:00
2:51 AM,42.1,37.9,85,29.87,10.0,SE,8.1,-,0.05,Rain,Rain,130,2014-02-05 07:51:00
3:51 AM,42.1,39.0,89,29.86,10.0,SSE,4.6,-,0.25,Rain,Rain,160,2014-02-05 08:51:00
4:03 AM,42.1,39.0,89,29.80,10.0,SE,9.2,-,0.03,Rain,Rain,140,2014-02-05 09:03:00
4:51 AM,42.1,39.0,89,29.81,10.0,SSE,4.6,-,0.14,Rain,Light Rain,150,2014-02-05 09:51:00
5:24 AM,42.1,39.0,89,29.75,10.0,South,4.6,-,0.07,Rain,Light Rain,180,2014-02-05 10:24:00
5:51 AM,42.1,39.0,89,29.77,10.0,SE,8.1,-,0.10,Rain,Light Rain,140,2014-02-05 10:51:00
6:51 AM,42.1,39.9,92,29.73,10.0,SSE,4.6,-,0.02,Rain,Light Rain,150,2014-02-05 11:51:00
7:51 AM,41.0,39.0,93,29.71,10.0,West,3.5,-,0.01,Rain,Light Rain,280,2014-02-05 12:51:00
8:15 AM,42.1,39.9,92,29.66,9.0,Calm,Calm,-,0.02,Rain,Light Rain,0,2014-02-05 13:15:00
8:51 AM,42.1,39.9,92,29.70,10.0,Calm,Calm,-,0.02,,Overcast,0,2014-02-05 13:51:00
9:51 AM,50.0,44.1,80,29.72,10.0,WSW,18.4,40.3,0.01,,Overcast,250,2014-02-05 14:51:00
10:09 AM,48.0,42.1,80,29.71,10.0,WSW,18.4,40.3,0.00,Rain,Light Rain,250,2014-02-05 15:09:00
10:51 AM,45.0,39.0,80,29.77,10.0,West,16.1,35.7,0.00,,Overcast,260,2014-02-05 15:51:00
11:51 AM,43.0,35.1,74,29.78,10.0,West,16.1,29.9,N/A,,Overcast,260,2014-02-05 16:51:00
12:51 PM,41.0,33.1,73,29.77,10.0,West,12.7,28.8,N/A,,Overcast,270,2014-02-05 17:51:00
1:19 PM,37.9,33.1,83,29.75,10.0,WNW,23.0,31.1,0.00,Rain,Light Rain,290,2014-02-05 18:19:00
1:51 PM,36.0,30.9,82,29.81,10.0,West,16.1,25.3,0.00,Rain,Light Rain,280,2014-02-05 18:51:00
2:04 PM,37.0,30.9,79,29.77,9.0,West,13.8,21.9,0.01,,Overcast,260,2014-02-05 19:04:00
2:51 PM,35.1,28.9,78,29.85,5.0,West,15.0,24.2,0.01,Snow,Light Snow,260,2014-02-05 19:51:00
3:26 PM,35.1,27.0,72,29.83,10.0,West,15.0,24.2,0.00,,Overcast,280,2014-02-05 20:26:00
3:34 PM,34.0,27.0,75,29.84,10.0,West,17.3,33.4,0.00,,Overcast,260,2014-02-05 20:34:00
3:51 PM,33.1,26.1,75,29.91,5.0,West,17.3,33.4,0.00,Snow,Light Snow,280,2014-02-05 20:51:00
3:56 PM,33.1,26.1,75,29.85,1.8,West,10.4,31.1,0.00,Snow,Light Snow,270,2014-02-05 20:56:00
4:07 PM,32.0,26.1,79,29.86,3.0,WNW,12.7,32.2,0.01,Snow,Light Snow,290,2014-02-05 21:07:00
4:41 PM,30.9,25.0,79,29.90,2.0,West,19.6,31.1,0.01,Snow,Light Snow,280,2014-02-05 21:41:00
4:51 PM,30.9,25.0,79,29.96,5.0,West,19.6,31.1,0.01,Snow,Light Snow,280,2014-02-05 21:51:00
5:51 PM,30.0,24.1,79,30.02,8.0,West,16.1,23.0,0.00,Snow,Light Snow,280,2014-02-05 22:51:00
6:03 PM,28.9,23.0,78,29.98,6.0,NW,15.0,24.2,0.00,Snow,Light Snow,320,2014-02-05 23:03:00
6:38 PM,28.0,21.9,78,30.01,4.0,WNW,16.1,21.9,0.00,Snow,Light Snow,300,2014-02-05 23:38:00
6:51 PM,27.0,21.9,81,30.09,4.0,WNW,12.7,20.7,0.00,Snow,Light Snow,300,2014-02-05 23:51:00
7:51 PM,25.0,19.9,81,30.14,4.0,NW,9.2,-,0.02,Snow,Light Snow,310,2014-02-06 00:51:00
8:05 PM,25.0,19.9,81,30.07,3.0,NNW,8.1,-,0.00,Snow,Light Snow,340,2014-02-06 01:05:00
8:24 PM,25.0,19.9,81,30.08,4.0,NW,5.8,-,0.00,Snow,Light Snow,310,2014-02-06 01:24:00
8:51 PM,25.0,19.9,81,30.15,4.0,WNW,10.4,-,0.00,Snow,Light Snow,300,2014-02-06 01:51:00
9:38 PM,24.1,19.0,81,30.11,9.0,West,9.2,-,0.00,Snow,Light Snow,280,2014-02-06 02:38:00
9:51 PM,24.1,19.0,81,30.17,7.0,WNW,10.4,18.4,0.00,Snow,Light Snow,290,2014-02-06 02:51:00
10:47 PM,24.8,19.4,80,30.12,2.5,NW,9.2,-,0.00,Snow,Light Snow,310,2014-02-06 03:47:00
10:51 PM,24.1,19.0,81,30.19,2.5,NW,11.5,-,0.00,Snow,Light Snow,320,2014-02-06 03:51:00
10:58 PM,24.1,18.0,77,30.13,4.0,NW,10.4,-,0.00,Snow,Light Snow,320,2014-02-06 03:58:00